AKDT,Max TemperatureF,Mean TemperatureF,Min TemperatureF,Max Dew PointF,MeanDew PointF,Min DewpointF,Max Humidity, Mean Humidity, Min Humidity, Max Sea Level PressureIn, Mean Sea Level PressureIn, Min Sea Level PressureIn, Max VisibilityMiles, Mean VisibilityMiles, Min VisibilityMiles, Max Wind SpeedMPH, Mean Wind SpeedMPH, Max Gust SpeedMPH,PrecipitationIn, CloudCover, Events, WindDirDegrees
2012-3-1,19,8,-2,18,12,-4,100,90,74,29.60,29.42,29.33,10,5,0,25,8,31,0.01,7,Fog-Snow,37
2012-3-2,28,17,6,22,12,3,100,92,75,29.52,29.40,29.32,10,6,0,6,1,,0.00,4,Fog,37
2012-3-3,23,14,6,20,16,4,100,91,86,29.75,29.67,29.51,10,3,0,15,4,24,0.06,8,Fog-Snow,210
2012-3-4,19,6,-6,12,3,-6,100,86,65,30.12,30.01,29.77,10,7,0,6,1,,0.00,4,Fog,341
2012-3-5,15,2,-11,12,4,-13,100,88,79,30.14,30.01,29.83,10,6,0,10,4,,0.02,7,Fog-Snow,38
2012-3-6,26,20,14,20,16,12,100,91,77,29.88,29.84,29.80,10,8,1,13,2,,0.00,5,,164
2012-3-7,21,13,5,18,11,3,100,92,80,29.96,29.91,29.87,10,8,0,9,5,,0.00,6,Fog,18
2012-3-8,21,6,-9,14,5,-11,100,88,68,29.88,29.41,29.09,10,7,0,7,1,,0.00,3,Fog-Snow,307
2012-3-9,21,2,-16,12,-3,-19,96,80,53,29.40,29.24,29.08,10,9,1,8,2,,0.00,1,,358
2012-3-10,19,12,-2,9,4,-5,92,71,52,29.41,29.37,29.32,10,10,3,9,5,,0.00,3,Snow,328
2012-3-11,19,8,-4,6,0,-7,88,70,48,29.52,29.41,29.33,10,10,10,8,2,,0.00,6,,321
2012-3-12,21,5,-11,6,-2,-16,91,73,44,29.55,29.39,29.13,10,10,10,9,3,,0.00,2,,6
2012-3-13,24,16,9,17,9,3,78,71,58,29.11,29.05,29.03,10,10,10,16,7,,0.00,8,,29
2012-3-14,28,23,19,27,20,15,100,85,72,29.10,29.06,29.00,10,8,2,21,14,,0.00,7,Snow,33
2012-3-15,30,26,21,27,23,18,100,85,61,29.10,29.07,29.05,10,6,1,15,8,,0.08,8,Snow,5
2012-3-16,28,20,3,23,18,2,100,85,72,29.42,29.28,29.11,10,10,10,9,5,,0.00,4,,239
2012-3-17,28,13,-2,17,2,-4,100,84,53,29.64,29.51,29.43,10,6,0,7,1,,0.00,3,Fog,325
2012-3-18,26,10,-6,18,7,-9,96,84,69,29.65,29.63,29.60,10,10,10,8,2,,0.00,5,,307
2012-3-19,28,12,-4,18,4,-6,100,86,63,29.63,29.60,29.58,10,6,0,8,1,,0.00,4,Fog-Snow,337
2012-3-20,25,17,8,18,15,6,100,88,71,29.63,29.54,29.48,10,5,1,9,1,,0.02,6,Snow,303
2012-3-21,24,8,-8,9,2,-11,96,74,46,29.86,29.67,29.53,10,10,8,9,4,,0.00,0,,356
2012-3-22,27,8,-11,9,-1,-15,91,72,41,30.11,30.03,29.88,10,10,10,8,2,,0.00,0,,11
2012-3-23,25,8,-9,23,9,-13,96,86,68,30.11,30.00,29.88,10,6,0,16,5,,0.01,5,Fog-Snow,23
2012-3-24,32,24,16,24,21,14,100,85,66,29.94,29.91,29.88,10,10,10,20,15,,0.00,5,,11
2012-3-25,34,16,1,19,8,-2,100,82,47,29.90,29.84,29.71,10,6,0,10,2,,0.00,2,Fog,13
2012-3-26,30,16,1,19,9,0,96,76,54,29.71,29.62,29.55,10,9,1,20,7,25,0.00,0,,31
2012-3-27,33,28,25,26,21,17,82,72,66,29.56,29.37,29.21,10,10,10,22,16,29,0.00,5,,23
2012-3-28,39,34,30,27,26,24,85,69,53,29.21,29.11,29.02,10,10,10,25,15,34,0.00,4,,24
2012-3-29,44,38,30,29,27,24,79,65,49,29.04,29.01,29.00,10,10,10,16,11,,0.00,3,,19
2012-3-30,45,30,16,28,23,14,96,76,51,29.38,29.17,29.04,10,10,10,7,2,,0.00,3,,337
2012-3-31,39,34,28,34,31,27,100,89,68,29.62,29.52,29.41,10,10,9,9,4,,0.04,4,Rain,208